Waarnemingen

Advertentie
Mijn weer
Semmerzake, België (6428): temperatuur & dauwpunt: 13.06.2018 20:00:00 - 19.06.2018 20:00:00 (CEST)Semmerzake, België (6428): windsnelheid & windstoten: 13.06.2018 20:00:00 - 19.06.2018 20:00:00 (CEST)Semmerzake, België (6428): windrichting: 13.06.2018 20:00:00 - 19.06.2018 20:00:00 (CEST)Semmerzake, België (6428): luchtdruk: 13.06.2018 20:00:00 - 19.06.2018 20:00:00 (CEST)Semmerzake, België (6428): zicht: 13.06.2018 20:00:00 - 19.06.2018 20:00:00 (CEST)
Datum & Tijd tt [°C] td [°C] ff [km/u] ff [kn] fx [km/u] fx [kn] dd ppp [hPa] vv [km]
19.06.2018 20:00:00 19,0 15,3 7 4 - - ZW 1024,4 20
19.06.2018 19:00:00 19,2 14,8 7 4 18 10 ZW 1024,5 20
19.06.2018 18:00:00 19,6 14,5 11 6 22 12 WZW 1024,7 20
19.06.2018 17:00:00 19,7 15,2 11 6 - - WZW 1024,9 20
19.06.2018 16:00:00 19,4 15,2 7 4 14 8 ZZW 1025,0 20
19.06.2018 15:00:00 - - - - - - - - -
19.06.2018 14:00:00 - - - - - - - - -
19.06.2018 13:00:00 - - - - - - - - -
19.06.2018 12:00:00 18,7 15,1 7 4 18 10 WZW 1024,7 20
19.06.2018 11:00:00 18,0 15,0 11 6 - - WZW 1024,7 20
19.06.2018 10:00:00 17,3 14,9 11 6 18 10 WZW 1024,7 18
19.06.2018 09:00:00 17,1 14,9 7 4 22 12 ZW 1024,0 20
19.06.2018 08:00:00 16,6 14,6 11 6 - - ZW 1023,7 20
19.06.2018 07:00:00 16,2 14,5 11 6 22 12 WZW 1023,5 20
19.06.2018 06:00:00 16,0 14,4 7 4 18 10 ZW 1023,2 19
19.06.2018 05:00:00 15,6 14,3 11 6 - - ZW 1022,7 16
19.06.2018 04:00:00 15,3 14,0 14 8 22 12 WZW 1022,6 14
19.06.2018 03:00:00 14,1 13,3 7 4 18 10 ZW 1022,5 18
19.06.2018 02:00:00 13,6 12,4 14 8 - - ZZW 1022,2 20
19.06.2018 01:00:00 13,8 11,8 11 6 22 12 ZZW 1022,2 20
19.06.2018 00:00:00 14,3 10,8 11 6 22 12 ZZW 1022,5 20
18.06.2018 23:00:00 15,1 10,7 11 6 - - ZW 1022,5 20
18.06.2018 22:00:00 16,5 11,4 14 8 29 16 ZW 1021,7 20
18.06.2018 21:00:00 17,7 11,6 14 8 29 16 WZW 1021,6 20
18.06.2018 20:00:00 18,2 11,6 18 10 - - ZW 1021,3 20
18.06.2018 19:00:00 17,2 11,1 18 10 40 21 WZW 1021,5 20
18.06.2018 18:00:00 18,5 12,4 25 14 36 19 WZW 1021,3 20
18.06.2018 17:00:00 18,8 12,7 18 10 - - ZW 1021,5 20
18.06.2018 16:00:00 18,9 13,1 18 10 32 18 WZW 1021,6 20
18.06.2018 15:00:00 17,3 12,4 18 10 40 21 WZW 1021,7 20
18.06.2018 14:00:00 18,5 12,7 22 12 - - WZW 1021,3 20
18.06.2018 13:00:00 18,7 14,2 18 10 32 18 WZW 1021,0 20
18.06.2018 12:00:00 18,1 13,5 22 12 32 18 WZW 1020,7 20
18.06.2018 11:00:00 18,0 13,6 18 10 - - WZW 1020,7 20
18.06.2018 10:00:00 17,0 14,5 14 8 25 14 ZW 1020,3 20
18.06.2018 09:00:00 16,2 14,1 14 8 25 14 ZW 1020,0 4,0
18.06.2018 08:00:00 16,2 13,6 14 8 - - ZW 1019,7 20
18.06.2018 07:00:00 16,0 13,0 14 8 29 16 ZZW 1019,6 20
18.06.2018 06:00:00 15,3 12,6 11 6 25 14 ZZW 1019,7 20
18.06.2018 05:00:00 15,3 12,0 14 8 - - ZZW 1019,3 12
18.06.2018 04:00:00 15,5 11,3 11 6 22 12 ZZW 1019,3 20
18.06.2018 03:00:00 15,6 11,3 11 6 18 10 ZZW 1019,5 20
18.06.2018 02:00:00 15,6 11,3 11 6 - - ZZW 1019,7 20
18.06.2018 01:00:00 15,7 10,8 14 8 25 14 ZW 1020,2 20
18.06.2018 00:00:00 15,8 10,3 7 4 18 10 ZW 1020,2 20
17.06.2018 23:00:00 16,0 10,2 7 4 - - ZW 1020,5 20
17.06.2018 22:00:00 16,5 9,6 7 4 22 12 WZW 1020,1 20
17.06.2018 21:00:00 17,0 9,3 11 6 29 16 W 1019,8 20
17.06.2018 20:00:00 17,1 9,6 14 8 - - ZW 1019,6 20
17.06.2018 19:00:00 17,7 9,0 14 8 36 19 WZW 1019,5 20
17.06.2018 18:00:00 18,1 8,8 14 8 32 18 WZW 1019,3 20
17.06.2018 17:00:00 18,8 9,3 18 10 - - WZW 1019,2 20
17.06.2018 16:00:00 18,7 9,2 18 10 32 18 WZW 1019,0 20
17.06.2018 15:00:00 17,9 9,4 14 8 29 16 WZW 1018,8 20
17.06.2018 14:00:00 16,5 9,7 14 8 - - ZW 1018,8 20
17.06.2018 13:00:00 16,3 8,9 14 8 29 16 ZW 1018,7 20
17.06.2018 12:00:00 15,5 9,7 14 8 29 16 ZW 1018,5 20
17.06.2018 11:00:00 15,2 10,1 14 8 - - ZW 1018,5 20
17.06.2018 10:00:00 15,1 10,5 14 8 25 14 ZW 1018,2 20
17.06.2018 09:00:00 14,6 10,6 14 8 25 14 ZW 1017,8 20
17.06.2018 08:00:00 13,6 10,3 11 6 - - ZW 1017,2 20
17.06.2018 07:00:00 13,1 10,1 11 6 22 12 ZW 1017,1 20
17.06.2018 06:00:00 13,0 9,6 14 8 29 16 ZW 1017,1 20
17.06.2018 05:00:00 13,8 9,5 18 10 - - WZW 1017,0 20
17.06.2018 04:00:00 13,8 10,1 11 6 22 12 ZW 1016,7 20
17.06.2018 03:00:00 14,1 10,9 11 6 22 12 ZW 1016,7 20
17.06.2018 02:00:00 14,5 10,8 11 6 - - ZW 1016,7 20
17.06.2018 01:00:00 15,1 10,2 14 8 29 16 ZW 1016,5 20
17.06.2018 00:00:00 15,8 9,6 11 6 18 10 ZZW 1016,5 20
16.06.2018 23:00:00 15,8 9,5 7 4 - - ZW 1016,6 20
16.06.2018 22:00:00 15,8 9,1 7 4 22 12 N 1016,5 20
16.06.2018 21:00:00 16,8 8,2 14 8 32 18 W 1016,5 20
16.06.2018 20:00:00 18,0 7,9 18 10 - - W 1016,2 20
16.06.2018 19:00:00 19,3 8,5 14 8 32 18 WZW 1016,0 20
16.06.2018 18:00:00 19,0 8,6 14 8 32 18 W 1016,0 20
16.06.2018 17:00:00 20,3 9,1 14 8 - - WZW 1015,6 20
16.06.2018 16:00:00 20,2 9,7 14 8 32 18 W 1015,5 20
16.06.2018 15:00:00 20,3 9,7 18 10 32 18 WZW 1015,5 20
16.06.2018 14:00:00 19,5 10,7 11 6 - - ZW 1015,6 20
16.06.2018 13:00:00 18,9 10,1 14 8 25 14 ZZW 1015,7 20
16.06.2018 12:00:00 18,0 12,0 11 6 22 12 ZZW 1016,2 18
16.06.2018 11:00:00 15,6 11,4 11 6 - - ZW 1016,5 18
16.06.2018 10:00:00 14,4 11,1 11 6 22 12 ZW 1016,6 19
16.06.2018 09:00:00 14,2 10,4 11 6 14 8 WZW 1016,2 20
16.06.2018 08:00:00 13,8 9,8 7 4 - - Z 1015,8 20
16.06.2018 07:00:00 12,6 9,1 11 6 14 8 ZZW 1016,2 20
16.06.2018 06:00:00 12,2 8,6 7 4 14 8 ZZW 1016,1 20
16.06.2018 05:00:00 12,6 8,2 7 4 - - ZW 1016,2 20
16.06.2018 04:00:00 12,8 8,3 11 6 14 8 ZZW 1016,3 20
16.06.2018 03:00:00 13,3 9,4 7 4 11 6 ZZW 1016,6 20
16.06.2018 02:00:00 14,3 9,8 4 2 - - N 1017,0 20
16.06.2018 01:00:00 14,1 11,1 4 2 4 2 N 1016,8 20
16.06.2018 00:00:00 14,9 10,7 4 2 7 4 N 1016,7 20
15.06.2018 23:00:00 15,8 10,8 4 2 - - N 1017,1 20
15.06.2018 22:00:00 16,9 11,4 4 2 14 8 N 1016,7 20
15.06.2018 21:00:00 18,3 11,3 11 6 18 10 NNW 1016,7 20
15.06.2018 20:00:00 19,6 11,8 11 6 - - NW 1016,7 20
15.06.2018 19:00:00 20,7 14,3 14 8 22 12 NNW 1016,3 17
15.06.2018 18:00:00 22,7 9,3 11 6 22 12 WZW 1016,2 20
15.06.2018 17:00:00 23,8 10,6 11 6 - - ZZW 1016,1 20
15.06.2018 16:00:00 22,0 11,2 11 6 25 14 Z 1016,5 20
15.06.2018 15:00:00 23,3 11,2 7 4 18 10 ZZW 1016,7 20
15.06.2018 14:00:00 22,1 10,4 7 4 - - Z 1016,7 20
15.06.2018 13:00:00 21,1 12,8 7 4 14 8 ZW 1017,0 15
15.06.2018 12:00:00 20,1 13,9 4 2 14 8 N 1017,1 19
15.06.2018 11:00:00 18,4 13,0 4 2 - - N 1017,2 17
15.06.2018 10:00:00 16,5 12,9 7 4 11 6 ZZW 1017,2 15
15.06.2018 09:00:00 15,1 12,2 4 2 14 8 N 1017,1 14
15.06.2018 08:00:00 13,3 11,7 7 4 - - ZW 1016,7 14
15.06.2018 07:00:00 11,8 11,0 7 4 11 6 Z 1016,6 12
15.06.2018 06:00:00 11,1 10,5 7 4 7 4 N 1016,6 11
15.06.2018 05:00:00 11,5 10,7 7 4 - - Z 1016,3 13
15.06.2018 04:00:00 11,5 10,6 7 4 11 6 Z 1016,2 14
15.06.2018 03:00:00 12,5 11,1 7 4 14 8 ZZW 1016,2 16
15.06.2018 02:00:00 12,8 11,0 4 2 - - - 1016,5 19
15.06.2018 01:00:00 13,6 11,4 7 4 14 8 ZW 1016,6 20
15.06.2018 00:00:00 14,6 12,2 7 4 14 8 ZW 1016,6 20
14.06.2018 23:00:00 15,8 12,6 7 4 - - ZW 1016,2 20
14.06.2018 22:00:00 16,7 13,6 7 4 22 12 ZW 1015,7 20
14.06.2018 21:00:00 17,4 13,8 11 6 22 12 ZW 1015,2 20
14.06.2018 20:00:00 17,3 14,1 11 6 - - ZW 1014,8 20
14.06.2018 19:00:00 17,0 13,4 14 8 29 16 WZW 1014,7 20
14.06.2018 18:00:00 17,8 12,6 18 10 32 18 ZW 1014,5 20
14.06.2018 17:00:00 18,3 12,5 18 10 - - ZW 1014,2 20
14.06.2018 16:00:00 18,1 12,0 18 10 36 19 ZZW 1014,1 20
14.06.2018 15:00:00 18,2 11,7 22 12 43 23 ZZW 1014,3 20
14.06.2018 14:00:00 17,6 11,5 22 12 - - Z 1014,1 20
14.06.2018 13:00:00 18,0 10,8 22 12 43 23 ZZW 1014,5 20
14.06.2018 12:00:00 18,3 11,0 22 12 40 21 ZZW 1014,6 20
14.06.2018 11:00:00 18,2 11,0 22 12 - - ZZW 1014,7 20
14.06.2018 10:00:00 16,9 11,0 22 12 32 18 ZZW 1014,7 20
14.06.2018 09:00:00 - - - - - - - - -
14.06.2018 08:00:00 14,3 10,3 14 8 - - ZZW 1015,0 -
14.06.2018 07:00:00 12,1 9,2 11 6 18 10 Z 1015,3 20
14.06.2018 06:00:00 10,6 8,9 7 4 14 8 Z 1015,7 17
14.06.2018 05:00:00 10,6 9,1 7 4 - - Z 1016,2 13
14.06.2018 04:00:00 10,7 9,1 7 4 7 4 Z 1016,6 15
14.06.2018 03:00:00 11,1 8,9 4 2 11 6 N 1017,2 19
14.06.2018 02:00:00 12,0 9,0 7 4 - - ZZW 1017,3 20
14.06.2018 01:00:00 11,5 9,0 0 0 7 4 N 1017,5 20
14.06.2018 00:00:00 13,1 9,4 4 2 4 2 N 1017,7 20
13.06.2018 23:00:00 14,0 9,1 4 2 - - N 1018,0 20
13.06.2018 22:00:00 16,0 9,1 4 2 7 4 N 1017,7 20
13.06.2018 21:00:00 17,6 8,3 4 2 7 4 N 1017,7 20
13.06.2018 20:00:00 18,7 7,0 4 2 - - N 1017,7 20

tt = temperatuur
td = dauwpunt
ff = windsnelheid
fx = windstoten
dd = windrichting
ppp = luchtdruk
vv = zicht

Weerstations in de omgeving